Date String (YYYY-MM-DD hh:mm:ss) UTC,Instrument flags,absolute air pressure of the measurement (hPa),sample flow rate (lpm),inlet stack bypass flow (lpm),air temperature of the measurement (°C),ambient temperature measured by the external sensor (°C),aerosol sample conditioner tube jacket temperature (°C),OPC LED temperature (°C),internal box temperature (°C),relative humidity of the measurement (%),span deviation,mass concentration of particles derived from Lorenz-Mie calculation of OPC scattering (μg/m³),mass concentration of particles derived from Lorenz-Mie calculation of OPC scattering (μg/m³),mass concentration of particles derived from Lorenz-Mie calculation of OPC scattering (μg/m³)
DateTimeUTC,F1_M11,P_M11,Q1_M11,Q2_M11,T1_M11,T2_M11,T3_M11,T4_M11,T5_M11,U1_M11,ZSPAN_M11,X0_M11,X2_M11,X1_M11
2024-03-09 03:00:00,SystemResetWarning,0833.8,5.01,000.00,018.3,017.2,000.0,027.1,020.0,18.4,0000.0,0006.69,0005.10,0005.02
2024-03-09 03:01:00,SystemResetWarning,0833.8,5.01,000.00,018.3,017.1,000.0,027.1,020.0,18.4,0000.0,0006.67,0005.07,0004.98
2024-03-09 03:02:00,SystemResetWarning,0833.8,5.01,000.00,018.3,017.0,000.0,027.1,020.0,18.4,0000.0,0006.87,0005.06,0004.95
2024-03-09 03:03:00,SystemResetWarning,0833.8,5.01,000.00,018.3,017.1,000.0,027.1,020.1,18.4,0000.0,0007.10,0005.06,0004.95
2024-03-09 03:04:00,SystemResetWarning,0833.8,5.00,000.00,018.4,017.9,000.0,027.2,020.5,18.3,0000.0,0007.07,0005.04,0004.93
2024-03-09 03:05:00,SystemResetWarning,0833.8,5.00,000.00,018.6,018.8,000.0,027.3,021.0,18.1,0000.0,0007.05,0005.03,0004.92
2024-03-09 03:06:00,SystemResetWarning,0833.8,5.00,000.00,018.7,018.8,000.0,027.2,020.9,17.9,0000.0,0006.98,0005.01,0004.91
2024-03-09 03:07:00,SystemResetWarning,0833.8,4.99,000.00,018.7,018.5,000.0,027.2,020.6,18.0,0000.0,0006.93,0004.98,0004.88
2024-03-09 03:08:00,SystemResetWarning,0833.8,4.98,000.00,018.7,018.2,000.0,027.2,020.4,18.0,0000.0,0006.88,0004.97,0004.88
2024-03-09 03:09:00,SystemResetWarning,0833.8,5.01,000.00,018.6,017.9,000.0,027.1,020.2,18.1,0000.0,0006.82,0004.98,0004.88
2024-03-09 03:10:00,SystemResetWarning,0833.8,5.00,000.00,018.5,017.7,000.0,027.1,020.1,18.1,0000.0,0006.84,0004.99,0004.89
2024-03-09 03:11:00,SystemResetWarning,0833.8,5.00,000.00,018.4,017.5,000.0,027.1,020.0,18.2,0000.0,0006.82,0004.99,0004.90
2024-03-09 03:12:00,SystemResetWarning,0833.8,5.00,000.00,018.4,017.3,000.0,027.1,020.0,18.2,0000.0,0006.78,0005.00,0004.91
2024-03-09 03:13:00,SystemResetWarning,0833.8,5.00,000.00,018.3,017.1,000.0,027.1,020.0,18.2,0000.0,0006.70,0005.01,0004.92
2024-03-09 03:14:00,SystemResetWarning,0833.9,5.00,000.00,018.3,017.0,000.0,027.1,020.0,18.2,0000.0,0006.33,0005.01,0004.94
2024-03-09 03:15:00,SystemResetWarning,0833.8,5.01,000.00,018.3,016.9,000.0,027.2,020.0,18.3,0000.0,0006.42,0005.04,0004.95
2024-03-09 03:16:00,SystemResetWarning,0833.9,5.01,000.00,018.4,017.6,000.0,027.2,020.3,18.2,0000.0,0006.56,0005.07,0004.96
2024-03-09 03:17:00,SystemResetWarning,0833.9,4.99,000.00,018.6,018.6,000.0,027.3,020.8,18.0,0000.0,0006.59,0005.09,0004.98
2024-03-09 03:18:00,SystemResetWarning,0833.9,4.99,000.00,018.7,018.8,000.0,027.2,020.9,17.8,0000.0,0006.62,0005.11,0005.01
2024-03-09 03:19:00,SystemResetWarning,0833.9,4.99,000.00,018.7,018.5,000.0,027.2,020.6,17.8,0000.0,0006.69,0005.14,0005.03
2024-03-09 03:20:00,SystemResetWarning,0833.9,5.00,000.00,018.7,018.2,000.0,027.2,020.4,17.8,0000.0,0006.80,0005.16,0005.05
2024-03-09 03:21:00,SystemResetWarning,0833.9,5.00,000.00,018.6,017.9,000.0,027.1,020.2,17.8,0000.0,0006.86,0005.19,0005.07
2024-03-09 03:22:00,SystemResetWarning,0833.8,5.01,000.00,018.5,017.7,000.0,027.1,020.1,17.8,0000.0,0006.91,0005.20,0005.09
2024-03-09 03:23:00,SystemResetWarning,0833.9,5.00,000.00,018.4,017.5,000.0,027.1,020.0,17.8,0000.0,0006.92,0005.20,0005.09
2024-03-09 03:24:00,SystemResetWarning,0833.9,5.00,000.00,018.4,017.3,000.0,027.1,020.0,17.9,0000.0,0006.93,0005.20,0005.10
2024-03-09 03:25:00,SystemResetWarning,0833.9,5.01,000.00,018.3,017.1,000.0,027.1,020.0,17.9,0000.0,0007.07,0005.24,0005.12
2024-03-09 03:26:00,SystemResetWarning,0833.9,5.00,000.00,018.3,017.0,000.0,027.1,020.0,18.0,0000.0,0007.19,0005.27,0005.14
2024-03-09 03:27:00,SystemResetWarning,0833.9,5.01,000.00,018.3,017.0,000.0,027.2,020.1,18.1,0000.0,0007.16,0005.28,0005.14
2024-03-09 03:28:00,SystemResetWarning,0833.9,5.00,000.00,018.4,017.9,000.0,027.2,020.5,18.0,0000.0,0007.12,0005.26,0005.13
2024-03-09 03:29:00,SystemResetWarning,0834.0,5.00,000.00,018.7,018.9,000.0,027.3,021.0,17.7,0000.0,0007.16,0005.27,0005.13
2024-03-09 03:30:00,SystemResetWarning,0834.0,5.00,000.00,018.9,019.3,000.0,027.3,021.2,17.6,0000.0,0007.17,0005.27,0005.13
2024-03-09 03:31:00,SystemResetWarning,0834.0,4.98,000.00,018.9,019.0,000.0,027.3,020.9,17.5,0000.0,0007.11,0005.26,0005.13
2024-03-09 03:32:00,SystemResetWarning,0833.9,5.01,000.00,018.8,018.6,000.0,027.2,020.7,17.5,0000.0,0007.02,0005.23,0005.12
2024-03-09 03:33:00,SystemResetWarning,0833.9,5.00,000.00,018.8,018.3,000.0,027.2,020.4,17.5,0000.0,0007.01,0005.23,0005.11
2024-03-09 03:34:00,SystemResetWarning,0833.8,5.00,000.00,018.7,018.0,000.0,027.2,020.3,17.6,0000.0,0006.96,0005.22,0005.11
2024-03-09 03:35:00,SystemResetWarning,0833.9,5.00,000.00,018.6,017.7,000.0,027.2,020.1,17.8,0000.0,0006.96,0005.22,0005.10
2024-03-09 03:36:00,SystemResetWarning,0833.8,5.00,000.00,018.5,017.5,000.0,027.2,020.0,17.9,0000.0,0006.88,0005.19,0005.09
2024-03-09 03:37:00,SystemResetWarning,0833.9,4.99,000.00,018.4,017.3,000.0,027.2,020.0,18.0,0000.0,0006.73,0005.16,0005.07
2024-03-09 03:38:00,SystemResetWarning,0833.9,5.00,000.00,018.4,017.1,000.0,027.2,020.0,18.1,0000.0,0006.67,0005.14,0005.07
2024-03-09 03:39:00,SystemResetWarning,0833.9,5.00,000.00,018.3,017.0,000.0,027.2,020.0,18.2,0000.0,0006.80,0005.16,0005.06
2024-03-09 03:40:00,SystemResetWarning,0833.9,5.00,000.00,018.3,017.0,000.0,027.2,020.0,18.2,0000.0,0006.76,0005.13,0005.04
2024-03-09 03:41:00,SystemResetWarning,0833.9,5.01,000.00,018.4,017.6,000.0,027.3,020.3,18.2,0000.0,0006.74,0005.12,0005.03
2024-03-09 03:42:00,SystemResetWarning,0834.0,5.00,000.00,018.6,018.6,000.0,027.3,020.9,18.0,0000.0,0006.76,0005.12,0005.02
2024-03-09 03:43:00,SystemResetWarning,0834.0,5.00,000.00,018.9,019.3,000.0,027.4,021.2,17.6,0000.0,0006.75,0005.13,0005.03
2024-03-09 03:44:00,SystemResetWarning,0834.0,5.00,000.00,018.9,019.1,000.0,027.3,021.0,17.4,0000.0,0006.96,0005.14,0005.04
2024-03-09 03:45:00,SystemResetWarning,0834.0,5.01,000.00,018.9,018.7,000.0,027.3,020.8,17.4,0000.0,0007.18,0005.17,0005.07
2024-03-09 03:46:00,SystemResetWarning,0834.0,5.00,000.00,018.8,018.4,000.0,027.3,020.5,17.4,0000.0,0007.18,0005.18,0005.08
2024-03-09 03:47:00,SystemResetWarning,0834.0,5.00,000.00,018.7,018.0,000.0,027.2,020.3,17.5,0000.0,0007.21,0005.19,0005.09
2024-03-09 03:48:00,SystemResetWarning,0834.0,5.00,000.00,018.6,017.7,000.0,027.2,020.1,17.6,0000.0,0007.20,0005.19,0005.09
2024-03-09 03:49:00,SystemResetWarning,0834.0,5.00,000.00,018.5,017.5,000.0,027.2,020.0,17.6,0000.0,0007.13,0005.17,0005.08
2024-03-09 03:50:00,SystemResetWarning,0834.0,5.00,000.00,018.5,017.3,000.0,027.2,020.0,17.7,0000.0,0007.02,0005.16,0005.08
2024-03-09 03:51:00,SystemResetWarning,0834.1,5.01,000.00,018.4,017.2,000.0,027.2,020.0,17.7,0000.0,0007.05,0005.17,0005.10
2024-03-09 03:52:00,SystemResetWarning,0834.1,5.01,000.00,018.4,017.1,000.0,027.2,020.0,17.8,0000.0,0007.26,0005.23,0005.12
2024-03-09 03:53:00,SystemResetWarning,0834.0,4.99,000.00,018.3,017.0,000.0,027.2,020.0,17.9,0000.0,0007.41,0005.24,0005.14
2024-03-09 03:54:00,SystemResetWarning,0834.0,4.99,000.00,018.3,017.3,000.0,027.2,020.2,18.0,0000.0,0007.46,0005.26,0005.15
2024-03-09 03:55:00,SystemResetWarning,0834.1,5.01,000.00,018.5,018.3,000.0,027.3,020.7,17.8,0000.0,0007.38,0005.28,0005.17
2024-03-09 03:56:00,SystemResetWarning,0834.1,4.99,000.00,018.8,019.2,000.0,027.4,021.2,17.6,0000.0,0007.38,0005.29,0005.17
2024-03-09 03:57:00,SystemResetWarning,0834.2,4.99,000.00,018.9,019.2,000.0,027.3,021.2,17.4,0000.0,0007.65,0005.31,0005.18
2024-03-09 03:58:00,SystemResetWarning,0834.1,5.00,000.00,018.9,018.9,000.0,027.3,020.9,17.4,0000.0,0007.65,0005.32,0005.19
2024-03-09 03:59:00,SystemResetWarning,0834.1,5.00,000.00,018.9,018.5,000.0,027.3,020.6,17.4,0000.0,0007.66,0005.33,0005.21
